Temperature
28 28 28 28 28 28 28 28 28 28 28 27 26 25 24 23 23 22 21 21 20 20 19 18 18 18 18 18 17 17 17 17 17 17 17 17 16 16 16 16 16 16 16 16
26 27 27 27 28 28 28 28 28 28 27 26 24 23 22 22 22 21 20 20 19 19 18 18 18 18 18 17 17 17 17 17 17 16 16 16 16 16 16 16 16 16 16 16
26 27 26 26 27 27 27 28 28 27 26 24 23 22 21 21 20 20 19 19 18 18 18 18 18 17 17 17 17 17 17 16 16 16 16 16 16 16 16 16 16 15 15 15
26 25 24 26 26 27 27 26 26 26 25 24 23 21 20 20 19 19 18 18 17 17 17 17 17 17 17 17 17 17 16 16 16 16 16 16 15 15 15 15 15 15 15 15
25 25 25 25 25 26 26 25 25 25 24 22 21 20 19 18 18 17 17 17 17 17 17 17 17 17 17 17 17 16 16 16 16 15 15 15 15 15 15 15 15 14 14 14
25 25 24 25 25 24 25 24 24 23 22 21 21 23 20 17 17 16 16 16 16 16 16 16 16 16 16 16 16 16 15 15 15 15 15 15 15 15 15 15 14 14 14 14
24 24 25 23 23 23 24 23 22 22 21 21 21 21 17 16 16 15 15 15 16 16 16 16 16 16 16 16 15 15 15 15 15 15 15 15 15 14 14 14 14 14 13 13
24 24 23 21 23 23 21 20 20 20 20 19 17 16 16 15 15 15 15 15 15 15 15 15 15 15 15 15 15 15 15 15 15 14 14 14 14 14 14 14 13 13 13 13
23 22 19 19 19 18 18 18 18 18 18 17 16 16 15 14 14 14 14 14 14 14 14 14 14 14 15 14 14 14 14 14 14 14 14 13 13 13 13 13 13 13 12 12
20 19 18 17 17 17 17 17 17 17 16 16 16 15 14 14 14 13 13 14 14 14 14 13 14 14 14 14 14 14 14 14 13 13 13 13 13 13 13 12 12 12 12 12
19 18 18 17 16 16 16 16 16 16 15 15 15 14 13 13 13 13 13 13 13 13 13 13 13 13 13 13 13 13 13 13 12 12 12 12 12 12 12 12 11 11 11 11
20 18 18 16 15 15 15 15 15 14 14 14 14 13 13 12 12 12 12 12 12 12 12 12 12 12 13 13 13 13 12 12 12 12 12 12 11 11 11 11 10 11 11 10
17 17 16 15 14 14 14 14 14 13 13 13 12 12 12 12 11 12 12 12 12 12 12 12 12 12 12 12 12 12 12 12 11 11 11 11 10 10 10 9 9 10 10 9
15 14 14 14 14 13 13 13 13 12 12 12 12 12 11 11 11 11 11 11 11 11 11 11 11 11 11 11 11 11 11 11 11 10 10 10 10 10 9 9 9 8 8 8
14 14 14 13 13 12 12 12 12 12 11 11 11 11 11 11 11 10 10 11 11 11 11 11 11 10 11 11 11 11 11 10 10 10 10 10 9 9 9 9 9 8 8 7
13 13 12 12 12 12 12 12 11 11 11 11 10 10 10 10 10 10 10 10 10 10 10 10 10 10 10 10 10 10 10 10 10 10 10 9 9 9 9 9 8 8 7 7
12 12 12 12 11 11 11 11 11 10 10 10 10 10 10 10 10 10 10 10 10 10 10 10 9 9 10 10 10 10 10 9 9 10 9 9 9 9 9 8 8 7 7 7
12 12 12 12 11 11 10 10 10 10 10 10 9 10 10 10 10 9 9 9 9 9 9 9 9 9 9 9 9 9 9 9 9 9 9 8 8 8 8 8 7 7 6 6
11 11 11 11 11 11 10 10 10 10 9 9 9 9 9 9 9 9 9 9 9 9 8 9 9 9 9 9 9 9 9 9 9 8 8 8 8 8 7 7 7 6 6 6
10 10 10 10 10 10 10 10 9 9 9 9 9 9 9 8 8 8 8 8 8 8 8 8 8 8 8 8 9 9 9 8 8 8 8 8 7 7 7 6 6 6 5 5
10 10 10 10 10 9 9 9 9 8 8 8 8 8 8 8 8 8 8 8 7 7 7 7 7 7 7 8 8 8 8 8 8 8 7 7 6 6 6 6 5 5 5 4
10 10 9 9 9 9 9 9 9 8 8 8 8 8 8 7 7 7 7 7 7 7 7 7 7 7 7 7 7 7 7 7 7 7 6 6 6 5 5 5 4 4 4 4
9 9 9 9 9 8 8 8 8 8 8 8 8 8 8 7 8 7 7 6 6 6 6 6 6 6 6 7 7 6 6 6 6 6 6 5 5 5 4 4 4 4 3 3
9 9 9 9 9 8 8 8 8 8 7 7 7 7 7 7 7 7 6 6 6 6 6 6 6 6 6 6 6 6 6 6 6 5 5 5 4 4 4 4 4 3 3 3
9 9 8 8 8 8 8 8 7 7 7 7 7 7 7 7 7 6 6 6 5 5 5 5 5 5 5 5 5 5 5 5 5 5 4 4 4 4 4 3 3 3 3 2
8 8 8 8 8 8 8 8 8 7 7 7 7 7 7 6 6 6 5 5 5 5 5 5 5 5 5 5 5 4 4 4 4 4 4 4 4 3 3 3 2 3 2 2
8 8 8 8 8 8 8 8 8 8 7 7 7 7 6 6 6 6 5 5 5 5 5 5 5 5 4 4 4 4 4 4 4 4 3 3 3 3 3 2 2 2 2 2
Wind_Speed
8 6 11 13 14 15 15 12 10 8 6 4 4 4 4 4 5 5 5 4 4 4 4 4 5 5 5 5 5 5 5 6 5 5 5 5 5 5 6 6 7 7 7 7
10 9 10 11 12 13 13 12 11 8 5 4 5 5 5 5 5 5 4 3 3 3 3 3 4 5 5 5 5 5 5 5 5 4 4 4 4 5 5 5 5 5 6 5
11 11 11 13 11 11 10 9 9 9 5 7 7 6 5 5 5 4 3 3 3 3 2 2 3 4 5 5 6 6 5 5 5 5 4 4 5 5 5 5 5 5 5 5
9 11 14 6 4 6 7 5 5 4 6 7 7 7 6 5 5 4 3 3 2 2 2 2 3 4 5 6 6 6 5 5 6 6 5 5 5 5 5 5 5 5 5 5
9 13 10 6 5 6 7 5 3 5 8 9 10 9 7 6 5 4 4 3 2 2 2 2 3 4 5 6 6 6 5 5 5 6 6 6 6 6 6 6 6 5 5 5
10 12 11 6 6 4 5 6 4 6 8 9 9 6 5 5 5 5 5 4 3 3 4 4 3 3 5 6 6 6 6 5 5 5 6 6 7 7 6 6 6 6 6 6
12 10 5 5 4 6 8 4 5 6 7 7 4 4 7 6 6 6 5 5 5 4 5 4 3 4 5 5 5 6 6 6 6 6 6 7 7 7 7 7 7 7 7 6
10 11 6 4 4 3 4 6 5 6 6 7 9 10 9 8 7 6 6 6 6 5 6 5 5 5 6 6 5 6 7 7 7 7 7 7 8 7 7 7 8 7 6 6
2 1 6 5 5 5 4 5 5 6 8 10 10 10 9 8 7 7 7 6 6 7 7 7 6 6 8 6 7 8 9 9 9 9 9 8 8 8 7 6 6 6 6 6
2 4 5 5 5 4 5 5 6 8 9 10 10 10 9 8 7 7 7 7 6 7 8 8 7 8 7 7 8 10 11 10 10 10 11 10 8 7 6 6 6 6 6 7
3 5 5 5 5 6 7 8 9 10 10 10 10 10 9 8 8 7 8 7 7 8 8 9 8 8 8 8 9 11 11 11 11 11 12 12 12 11 10 10 8 7 7 7
2 4 3 5 5 6 8 8 9 10 11 10 10 11 10 9 8 8 8 8 9 9 10 10 10 9 9 8 9 10 10 10 9 9 10 11 12 14 20 17 19 19 16 11
3 3 6 7 7 7 8 9 10 10 11 11 11 10 10 10 9 9 9 9 10 10 10 10 11 10 9 9 10 11 11 10 9 9 9 9 10 11 11 13 18 19 18 16
6 6 7 7 7 8 9 10 11 11 11 11 11 11 11 11 10 10 10 10 10 10 11 11 11 11 9 9 10 11 11 11 10 9 9 9 9 9 9 9 10 10 12 14
5 4 7 8 9 10 10 11 12 11 11 12 11 11 12 12 11 11 10 10 11 12 12 12 12 10 8 9 10 10 9 8 8 9 9 9 8 8 9 10 9 8 8 8
6 8 9 10 10 11 11 11 12 12 12 12 12 12 12 12 12 11 10 10 12 12 11 11 11 10 9 9 10 10 10 11 8 8 8 8 7 8 8 8 8 7 7 6
9 9 10 11 11 11 11 11 11 12 13 13 13 13 13 13 13 12 11 11 12 12 11 11 10 9 9 9 9 8 9 9 8 8 8 8 7 7 7 7 7 7 7 8
7 8 9 11 12 12 12 12 12 13 13 14 14 13 13 12 13 12 11 11 12 13 11 10 9 9 9 9 8 7 7 7 7 8 8 7 7 7 7 7 7 7 6 6
9 10 11 12 13 13 13 13 13 14 13 13 14 13 12 12 12 12 11 11 11 11 10 9 8 9 10 9 6 7 7 8 8 8 8 7 6 7 7 6 6 6 6 5
11 12 13 13 13 14 14 14 14 14 13 13 14 13 13 11 11 11 11 11 9 8 8 8 8 9 8 7 4 6 7 8 8 8 7 7 7 7 7 6 6 6 6 6
13 14 14 14 14 14 15 15 14 14 13 13 13 13 12 11 9 9 10 10 9 7 8 7 7 7 7 5 4 7 7 7 7 7 7 7 7 7 7 6 6 6 5 5
13 14 15 15 15 15 14 14 14 15 14 14 14 13 13 11 11 10 10 8 8 4 5 8 8 8 6 3 6 7 7 7 7 7 7 7 6 6 6 6 6 5 5 5
12 13 15 16 16 16 15 14 15 14 14 13 13 12 11 9 8 9 9 7 7 6 7 9 8 7 6 4 7 7 7 7 7 7 7 6 6 6 6 6 5 5 5 4
13 14 15 15 16 16 15 14 13 12 13 12 11 11 10 9 8 9 9 9 8 8 9 9 7 6 3 6 7 7 7 6 6 6 6 6 6 6 5 5 4 4 4 4
13 14 15 16 14 13 14 14 14 13 12 11 11 10 8 8 9 9 9 10 9 8 9 8 5 3 4 7 7 7 7 7 6 5 5 5 5 5 5 4 4 4 4 3
12 11 11 11 11 11 11 11 10 10 10 10 9 9 9 9 10 9 8 10 10 8 7 7 6 4 6 7 7 6 6 6 5 5 5 4 5 5 4 4 4 3 3 3
12 11 10 10 9 9 10 10 10 10 9 9 9 9 9 9 9 9 9 8 7 7 6 6 5 5 6 6 6 5 5 4 4 4 4 4 3 3 3 3 3 3 2 3
Wind_Direction
229 200 191 198 203 207 221 233 239 228 218 183 160 151 138 134 136 129 124 125 139 153 158 170 177 177 174 172 169 168 167 168 171 173 172 173 176 179 178 178 177 177 181 186
211 204 202 205 206 208 216 228 235 234 206 130 130 134 134 127 128 120 114 114 117 122 141 169 180 181 176 170 164 162 162 159 158 157 158 159 162 164 159 158 159 163 170 172
206 196 203 211 208 207 209 219 230 230 192 148 146 140 135 130 120 107 105 109 115 123 134 154 181 178 174 169 159 157 158 151 145 146 144 141 135 133 137 140 140 142 145 146
205 194 216 194 180 207 205 204 215 190 149 150 141 128 116 112 108 92 79 85 86 97 112 132 153 160 161 159 154 152 151 148 143 138 135 130 123 123 124 125 125 129 130 131
209 210 208 167 177 194 200 194 192 172 149 136 131 130 112 94 87 79 67 68 68 56 87 110 128 144 152 154 150 144 142 142 143 144 140 135 129 124 123 121 118 117 113 107
216 221 217 175 154 185 212 200 161 162 156 151 165 182 128 99 84 75 65 63 68 73 79 82 93 129 138 139 136 135 135 137 137 139 137 133 127 124 121 120 115 106 96 90
217 221 209 106 149 187 212 162 127 152 157 163 158 81 110 106 87 76 69 66 69 72 73 73 82 112 121 122 123 127 128 123 123 126 125 123 121 119 117 114 107 99 93 85
216 222 197 97 171 185 83 89 117 133 136 124 108 107 109 100 87 76 67 69 75 77 71 67 77 103 105 103 105 112 114 112 110 112 116 114 113 110 112 114 112 106 98 86
230 123 80 81 82 74 96 108 107 118 120 124 122 116 106 94 82 74 68 70 79 84 81 73 71 84 89 87 100 106 105 102 98 92 89 96 105 110 109 109 109 107 104 94
139 114 106 99 93 91 98 106 112 119 123 125 121 113 104 95 86 79 72 72 76 83 82 76 72 77 85 94 98 101 99 96 94 89 84 75 71 71 77 82 94 96 93 90
166 134 127 114 103 102 102 109 113 114 117 120 117 110 106 100 92 83 75 72 75 78 82 80 77 77 81 92 100 100 98 96 94 90 87 79 69 54 58 50 51 75 81 81
167 143 147 126 118 121 116 113 116 115 112 109 110 110 106 99 93 89 85 82 81 81 81 80 79 77 77 84 95 101 101 100 98 98 96 97 94 79 58 61 58 57 57 70
91 113 110 123 126 124 120 115 116 116 114 110 107 109 106 101 96 93 88 83 81 82 81 79 77 74 74 80 87 93 97 98 99 100 102 103 104 104 98 77 67 62 61 65
116 121 127 135 130 124 120 116 113 111 112 111 111 110 108 103 97 90 86 87 87 86 85 82 78 72 72 83 90 94 95 94 98 100 100 101 102 104 105 106 100 87 74 70
135 137 136 132 129 127 125 123 119 116 115 113 112 111 108 104 98 92 89 92 91 86 82 81 79 73 74 85 89 89 89 92 93 96 97 99 102 104 102 99 98 100 100 93
130 129 136 138 138 138 135 131 128 126 122 117 113 109 106 103 97 91 87 86 87 83 80 79 79 80 84 90 93 92 88 83 91 102 102 103 103 101 100 101 99 93 86 78
150 149 145 141 140 138 134 134 133 130 126 121 118 115 112 107 99 91 86 83 83 81 80 79 77 80 84 87 91 96 100 100 103 101 96 95 95 95 96 94 91 86 77 53
152 147 143 140 137 131 129 130 129 126 123 121 120 116 112 108 103 98 95 93 87 77 68 70 74 78 77 78 81 89 97 96 94 92 94 92 94 96 95 94 93 91 93 91
136 136 135 133 131 132 131 128 124 120 120 120 117 112 108 104 102 100 96 90 86 80 70 69 67 78 81 77 81 97 96 98 97 96 97 104 100 93 91 90 87 84 81 76
133 133 130 129 131 129 127 123 121 119 119 119 116 111 105 101 101 100 95 84 75 77 79 74 79 78 81 69 51 94 97 100 103 104 102 98 93 92 88 84 81 79 76 74
132 133 131 129 127 126 125 125 123 121 119 119 117 113 109 107 105 104 101 94 82 78 88 86 80 79 77 70 71 88 92 96 98 98 97 96 93 89 86 84 82 79 75 72
131 132 132 130 128 124 123 124 122 121 120 119 117 116 114 112 106 96 86 89 93 65 88 86 80 64 42 37 87 87 90 91 92 93 93 93 94 93 90 88 84 78 72 68
128 128 129 128 125 123 122 122 122 121 122 121 119 117 113 108 108 107 101 92 95 75 78 77 66 40 353 75 83 87 88 89 91 93 94 93 92 91 90 86 80 74 70 67
124 123 122 122 122 121 120 120 118 118 118 115 113 113 113 110 99 93 97 92 79 84 87 78 57 29 10 85 86 88 90 93 93 91 91 93 92 88 86 85 83 79 74 67
122 122 124 125 124 122 121 122 120 120 118 117 116 115 110 105 105 104 105 106 108 105 100 93 69 16 79 83 87 86 81 73 74 82 89 88 91 92 87 80 76 73 69 66
119 120 119 120 123 127 132 132 130 129 126 122 117 111 107 107 110 112 112 111 107 103 103 106 102 100 87 88 88 88 91 97 93 85 81 85 86 84 77 70 68 65 67 64
118 120 122 120 121 126 129 129 128 127 126 123 118 115 116 117 115 114 113 114 112 106 103 102 100 94 91 90 89 87 86 86 84 82 84 78 78 80 82 78 68 67 64 68
Height
1437 1436 1439 1445 1448 1449 1451 1451 1455 1453 1455 1458 1462 1467 1471 1473 1475 1477 1479 1480 1482 1483 1484 1485 1487 1488 1489 1490 1491 1492 1493 1494 1495 1496 1497 1498 1499 1500 1502 1504 1506 1508 1511 1514
1444 1440 1441 1444 1444 1446 1448 1449 1449 1450 1455 1459 1465 1469 1472 1474 1475 1477 1479 1480 1481 1482 1483 1485 1486 1487 1488 1489 1490 1491 1492 1493 1494 1495 1496 1497 1498 1499 1500 1502 1504 1507 1509 1512
1444 1442 1445 1450 1444 1445 1446 1446 1448 1451 1455 1461 1466 1470 1473 1475 1476 1478 1479 1480 1481 1482 1483 1484 1485 1486 1488 1489 1490 1490 1492 1493 1493 1494 1495 1496 1497 1498 1499 1501 1503 1505 1508 1510
1441 1448 1461 1445 1442 1443 1445 1448 1449 1452 1457 1462 1466 1472 1474 1476 1478 1479 1480 1480 1481 1482 1482 1483 1485 1486 1487 1488 1489 1490 1491 1493 1494 1494 1495 1496 1497 1498 1499 1501 1503 1505 1507 1509
1441 1448 1446 1447 1445 1445 1448 1452 1453 1454 1459 1464 1469 1472 1475 1478 1479 1480 1480 1480 1481 1482 1482 1483 1484 1485 1486 1487 1488 1490 1491 1492 1494 1495 1496 1497 1498 1499 1500 1502 1503 1505 1507 1509
1442 1447 1452 1444 1444 1448 1450 1455 1455 1457 1461 1465 1467 1466 1474 1478 1479 1480 1480 1481 1481 1481 1482 1482 1483 1484 1485 1486 1488 1489 1491 1492 1493 1495 1496 1497 1498 1500 1501 1503 1504 1506 1508 1509
1440 1443 1440 1443 1447 1450 1456 1456 1458 1460 1462 1465 1467 1469 1476 1478 1480 1480 1481 1481 1481 1481 1481 1482 1483 1483 1484 1486 1488 1489 1490 1492 1493 1494 1496 1498 1499 1501 1502 1504 1505 1507 1509 1510
1439 1445 1447 1449 1448 1450 1456 1459 1460 1462 1465 1467 1471 1474 1476 1478 1480 1481 1481 1481 1481 1482 1482 1482 1483 1484 1484 1485 1487 1489 1490 1492 1493 1495 1497 1498 1500 1501 1503 1505 1506 1508 1510 1511
1440 1447 1452 1453 1455 1458 1459 1461 1463 1464 1467 1470 1472 1475 1477 1479 1481 1481 1482 1482 1483 1483 1483 1483 1484 1484 1485 1486 1488 1489 1491 1492 1494 1495 1497 1499 1501 1503 1505 1506 1508 1510 1511 1512
1447 1451 1454 1456 1458 1460 1461 1463 1465 1467 1469 1471 1474 1476 1478 1481 1482 1483 1483 1484 1484 1485 1484 1485 1485 1486 1486 1488 1489 1490 1492 1494 1495 1496 1498 1500 1502 1504 1506 1508 1509 1511 1512 1513
1449 1453 1456 1458 1460 1461 1463 1464 1466 1469 1471 1473 1475 1477 1480 1482 1483 1484 1485 1485 1486 1486 1486 1487 1487 1487 1488 1489 1491 1492 1494 1495 1497 1499 1500 1501 1503 1505 1507 1508 1510 1512 1513 1514
1446 1452 1454 1459 1461 1463 1465 1467 1469 1471 1473 1476 1477 1479 1482 1483 1485 1486 1487 1487 1488 1488 1488 1489 1490 1490 1491 1492 1493 1495 1496 1498 1499 1501 1503 1504 1505 1507 1510 1511 1513 1514 1515 1516
1452 1454 1457 1460 1463 1465 1467 1469 1471 1473 1475 1477 1480 1482 1484 1485 1487 1488 1489 1490 1490 1491 1491 1492 1493 1493 1494 1495 1496 1497 1499 1500 1502 1504 1506 1507 1509 1510 1512 1515 1516 1517 1518 1518
1454 1456 1459 1462 1464 1466 1468 1470 1472 1475 1477 1479 1482 1484 1486 1488 1489 1491 1492 1492 1493 1494 1494 1495 1496 1497 1498 1499 1500 1501 1503 1504 1506 1508 1509 1511 1513 1515 1516 1518 1519 1520 1521 1522
1456 1457 1460 1462 1464 1467 1469 1471 1474 1476 1479 1482 1484 1486 1488 1490 1492 1493 1495 1496 1497 1497 1498 1499 1499 1500 1501 1502 1503 1505 1507 1508 1510 1512 1513 1515 1517 1518 1520 1522 1523 1524 1525 1525
1456 1458 1460 1463 1465 1468 1470 1473 1475 1478 1481 1483 1486 1489 1491 1493 1495 1496 1498 1499 1500 1500 1501 1502 1503 1504 1506 1507 1507 1509 1510 1512 1514 1516 1517 1519 1521 1522 1524 1525 1527 1528 1528 1528
1455 1458 1460 1463 1466 1468 1471 1474 1477 1480 1482 1485 1488 1491 1494 1496 1498 1499 1501 1503 1503 1504 1506 1506 1507 1509 1510 1511 1512 1514 1515 1516 1518 1520 1521 1523 1524 1525 1527 1528 1529 1530 1530 1529
1456 1458 1461 1463 1466 1469 1473 1476 1479 1482 1485 1488 1490 1493 1496 1499 1501 1503 1505 1506 1507 1508 1509 1511 1512 1513 1514 1515 1516 1518 1519 1520 1521 1523 1524 1525 1527 1528 1529 1530 1531 1531 1532 1532
1457 1459 1462 1465 1468 1471 1475 1478 1481 1484 1487 1490 1493 1496 1499 1502 1504 1506 1508 1510 1511 1512 1513 1514 1515 1517 1517 1518 1520 1521 1522 1523 1524 1525 1526 1527 1529 1530 1531 1532 1533 1533 1534 1534
1458 1461 1464 1467 1471 1474 1477 1480 1484 1487 1491 1494 1496 1499 1502 1505 1507 1509 1511 1513 1514 1516 1517 1518 1519 1520 1521 1522 1523 1525 1525 1526 1527 1528 1529 1530 1531 1532 1533 1534 1534 1534 1534 1534
1460 1462 1466 1469 1473 1477 1480 1484 1487 1490 1494 1497 1500 1502 1505 1508 1511 1513 1514 1516 1518 1519 1520 1521 1522 1523 1524 1525 1526 1527 1528 1529 1529 1530 1531 1532 1533 1534 1534 1535 1535 1535 1535 1535
1462 1465 1468 1472 1475 1480 1484 1487 1490 1494 1497 1501 1503 1506 1509 1512 1514 1516 1517 1519 1520 1522 1524 1524 1525 1525 1526 1527 1529 1529 1530 1531 1531 1532 1533 1534 1534 1535 1536 1536 1536 1536 1536 1536
1465 1467 1471 1474 1478 1482 1487 1491 1494 1497 1501 1504 1507 1510 1512 1515 1518 1519 1521 1522 1523 1524 1526 1525 1526 1527 1528 1530 1531 1531 1531 1532 1533 1534 1535 1535 1536 1536 1537 1537 1537 1537 1537 1537
1468 1471 1474 1478 1482 1486 1490 1494 1497 1501 1504 1508 1511 1513 1516 1518 1520 1522 1522 1524 1525 1527 1527 1527 1528 1529 1530 1532 1532 1533 1533 1534 1535 1536 1536 1537 1537 1537 1538 1538 1538 1538 1538 1537
1471 1475 1478 1482 1486 1490 1494 1497 1501 1505 1508 1511 1514 1517 1519 1521 1522 1524 1525 1526 1528 1529 1530 1530 1530 1531 1533 1534 1534 1534 1535 1536 1536 1537 1537 1538 1538 1538 1538 1539 1538 1538 1538 1538
1475 1478 1482 1486 1490 1494 1498 1501 1505 1508 1511 1514 1517 1520 1522 1523 1525 1526 1528 1529 1530 1531 1532 1533 1533 1534 1535 1535 1536 1536 1536 1537 1538 1538 1538 1539 1539 1539 1539 1538 1538 1538 1538 1537
1479 1483 1487 1490 1494 1498 1501 1505 1508 1511 1514 1517 1519 1522 1524 1526 1528 1529 1531 1532 1533 1534 1535 1535 1536 1536 1537 1537 1537 1537 1538 1538 1539 1539 1539 1539 1539 1539 1539 1539 1539 1538 1538 1537